Location: Newark
(52.3500°N, 175.9667°E)
Time: 21:22:33
(UTC+00:00)

Transit 4A - Pass Details

Date: 26 April 2021
Orbit: 871 x 974 km, 66.8° (Epoch: 16 May)

Event Time Altitude Azimuth Distance (km) Brightness Sun altitude
Rises 08:37:33 0° 152° (SSE) 3,616 - -9.3°
Reaches altitude 10° 08:41:44 10° 125° (SE) 2,655 - -9.8°
Exits shadow 08:42:47 12° 116° (ESE) 2,525 9.5 -9.9°
Maximum altitude 08:44:13 13° 101° (ESE) 2,453 9.6 -10.1°
Drops below altitude 10° 08:46:42 10° 77° (ENE) 2,633 9.9 -10.4°
Sets 08:50:47 0° 51° (NE) 3,557 10.8 -10.9°
